Home > Weather > Taipei > Past weeks

Flag for Taiwan Weather for the Past 2 Weeks in Taipei, Taiwan

Now
52 °F

Passing clouds.


Feels Like: 49 °F
Forecast: 50 / 53 °F
Wind: 7 mph from Northeast

Location: Sungshan / Taipei

Current Time: Feb 15, 2016 at 2:10:25 AM

Latest Report: Feb 15, 2016 at 1:30 AM


Visibility: N/A

Pressure: 30.30 "Hg

Humidity: 72%

Dew point: 43 °F

Location of TaipeiLocation

Historic Weather in Taipei — Graph

°F

Taipei Temperature Yesterday

Maximum temperature yesterday: 70 °F (at 12:00 AM)
Minimum temperature yesterday: 52 °F (at 11:30 PM)
Average temperature yesterday: 62 °F

High & Low Weather Summary for the Past Weeks

 TemperatureHumidityPressure
High86 °F (Feb 13, 11:00 AM)94% (Feb 2, 10:30 PM)30.36 "Hg (Feb 2, 10:30 PM)
Low41 °F (Feb 8, 4:00 AM)23% (Feb 8, 2:00 PM)29.83 "Hg (Feb 13, 1:30 PM)
Average61 °F69%30.14 "Hg
* Reported Jan 31 1:00 AM — Feb 15 1:00 AM, Taipei, Weather by CustomWeather, © 2016

Note: Actual official high and low records may vary slightly from our data, if they occured in-between our weather recording intervals... More about our weather records

Advertising

Taipei Weather History for the Previous 24 Hours

 ConditionsComfort  
Time TempWeatherWind HumidityBarometerVisibility
1:00 AM
Mon, Feb 15
52 °FPassing clouds.5 mph77%30.30 "HgN/A
12:00 AM52 °FLight rain. Passing clouds.8 mph77%30.30 "HgN/A
11:30 PM
Sun, Feb 14
52 °FLight rain. Passing clouds.8 mph77%30.27 "HgN/A
11:00 PM54 °FLight rain. Passing clouds.6 mph72%30.27 "HgN/A
10:30 PM54 °FLight rain. Passing clouds.5 mph72%30.27 "HgN/A
10:00 PM54 °FLight rain. Passing clouds.6 mph72%30.27 "HgN/A
9:30 PM54 °FLight rain. Passing clouds.3 mph77%30.24 "Hg5 mi
9:00 PM54 °FLight rain. Passing clouds.6 mph77%30.24 "HgN/A
8:30 PM54 °FLight rain. Passing clouds.8 mph77%30.21 "HgN/A
8:00 PM54 °FLight rain. Passing clouds.9 mph77%30.18 "HgN/A
7:30 PM54 °FLight rain. Passing clouds.10 mph77%30.18 "HgN/A
7:00 PM55 °FPassing clouds.12 mph72%30.18 "HgN/A
6:55 PM55 °FPassing clouds.12 mph72%30.18 "HgN/A
6:30 PM57 °FPassing clouds.9 mph67%30.15 "HgN/A
6:00 PM57 °FScattered showers. Passing clouds.8 mph67%30.15 "HgN/A
5:30 PM57 °FScattered showers. Partly sunny.9 mph72%30.12 "HgN/A
5:00 PM57 °FScattered showers. Mostly cloudy.9 mph77%30.12 "HgN/A
4:52 PM57 °FPartly sunny.8 mph77%30.12 "HgN/A
4:30 PM59 °FLight rain. Partly sunny.10 mph72%30.09 "HgN/A
4:00 PM59 °FLight rain. Partly sunny.8 mph77%30.09 "Hg4 mi
3:30 PM59 °FLight rain. Partly sunny.10 mph77%30.07 "Hg5 mi
3:00 PM61 °FLight rain. Partly sunny.9 mph72%30.04 "Hg5 mi
2:30 PM61 °FLight rain. Mostly cloudy.10 mph77%30.04 "Hg4 mi
2:00 PM61 °FLight rain. Partly sunny.15 mph77%30.01 "HgN/A
1:49 PM63 °FLight rain. Partly sunny.13 mph73%30.01 "HgN/A
1:30 PM63 °FScattered showers. Partly sunny.10 mph73%30.01 "HgN/A
1:00 PM63 °FLight rain. Mostly cloudy.12 mph77%30.01 "HgN/A
12:30 PM64 °FLight rain. Mostly cloudy.10 mph73%30.01 "Hg5 mi
12:00 PM64 °FLight rain. Mostly cloudy.12 mph78%30.01 "Hg4 mi
11:49 AM64 °FRain. Mostly cloudy.9 mph78%30.01 "Hg2 mi
11:30 AM66 °FLight rain. Mostly cloudy.6 mph78%30.01 "Hg4 mi
11:00 AM68 °FLight rain. Mostly cloudy.7 mph73%30.01 "Hg5 mi
10:30 AM68 °FLight rain. Mostly cloudy.9 mph78%30.01 "Hg5 mi
10:00 AM70 °FLight rain. Mostly cloudy.2 mph83%30.01 "Hg4 mi
9:30 AM68 °FFog.3 mph88%30.01 "Hg3 mi
9:00 AM68 °FFog.9 mph88%29.98 "Hg2 mi
8:30 AM70 °FFog.9 mph83%29.98 "Hg2 mi
8:00 AM70 °FScattered clouds.6 mph78%29.98 "HgN/A
7:30 AM68 °FPassing clouds.3 mph83%29.95 "HgN/A
7:00 AM68 °FScattered clouds.5 mph83%29.95 "HgN/A
6:30 AM68 °FPartly sunny.1 mph83%29.95 "HgN/A
6:00 AM68 °FPartly cloudy.1 mph83%29.92 "HgN/A
5:00 AM68 °FPassing clouds.1 mph83%29.92 "HgN/A
4:00 AM68 °FPassing clouds.5 mph83%29.89 "HgN/A
3:00 AM68 °FPassing clouds.2 mph83%29.89 "HgN/A
2:00 AM68 °FPassing clouds.No wind83%29.89 "HgN/A
Weather by CustomWeather, © 2016

See weather overviewHow to use our weather pages